{"data":{"norad_id":63707,"intl_designator":"2025-087L","name":"STARLINK-33982","alt_names":[],"object_type":"PAYLOAD","status":"ACTIVE","operator":null,"country":"US","launch_date":"2025-04-28","launch_site_code":"AFWTR","launch_vehicle":null,"mission":null,"orbit_class":"UNKNOWN","rcs_meters":null,"size_class":null,"mass_kg":null,"dimensions":null,"purposes":["comms"],"wikipedia_slug":null,"has_3d_model":false,"image_url":null,"decayed_at":null,"tle_current":{"epoch":"2026-05-24T16:03:31.468608Z","epoch_age_seconds":103702,"freshness":"FRESH","line1":"1 63707U 25087L   26144.66911422  .00020936  00000+0  71675-3 0  9991","line2":"2 63707  53.1587 226.5497 0001392  14.4902 345.6139 15.30210797 60837","mean_motion":15.30210797,"eccentricity":0.0001392,"inclination_deg":53.1587,"raan_deg":226.5497,"arg_perigee_deg":14.4902,"mean_anomaly_deg":345.6139,"bstar":0.00071675,"rev_number":6083,"period_min":94.104681709418,"perigee_km":474.22884959248,"apogee_km":476.13681383363,"semimajor_km":6853.3198317131,"source":"CELESTRAK","updated_at":"2026-05-25T13:38:20.098111Z"}}}